Lexington Weather

Lexington, Massachusetts, USA

36°F
1/28/2020 5:15am 
  • Lexington Conditions: Overcast
  • Temperature: 36.1°F / 2.3°C 
  • Dew Point: 29.7°F 
  • Relative Humidity: 77
  • Wind: Wind from WNW WNW 1 mph, 10-min avg: 1 mph, gust: 4 mph
  • Barometer: 29.64 inRising 0.02  inHg/hr Rising Slowly
  • Visibility: 10 miles
  • Rain Today: 0.00 in
  •   

Regional Weather Roundup
for Boston / Norton, MA

        
000
ASUS41 KBOX 261810
RWRBOX

REGIONAL WEATHER ROUNDUP
NATIONAL WEATHER SERVICE BOSTON/NORTON MA
100 PM EST SUN JAN 26 2020

NOTE:  "FAIR" INDICATES FEW OR NO CLOUDS BELOW 12,000 FEET WITH NO 
SIGNIFICANT WEATHER AND/OR OBSTRUCTIONS TO VISIBILITY.

MAZALL-261900-
EASTERN MASSACHUSETTS
  
CITY           SKY/WX    TMP DP  RH WIND       PRES   REMARKS
BOSTON         FAIR      50  29  44 W20G26    29.64F                  
6HR MIN TEMP:  43; 6HR MAX TEMP:  50;                                

BEVERLY        FAIR      48  30  49 W15G24    29.63S                  
LAWRENCE       FAIR      47  29  49 W14G26    29.64F                  
BEDFORD        FAIR      49  28  44 W17G24    29.64F                  
BLUE HILL        N/A     46  29  51 W15G28    29.62F                  
NORWOOD        FAIR      51  29  42 W16G24    29.65F                  
MARSHFIELD     FAIR      50  30  46 W8G20     29.64F                  
PLYMOUTH       FAIR      49  31  49 W17       29.65F                  
TAUNTON        FAIR      49  29  46 SW9       29.66F                  
NEW BEDFORD    FAIR      48  29  47 W17G23    29.67F                  
$$

MAZALL-261900-
CAPE COD AND THE ISLANDS
  
CITY           SKY/WX    TMP DP  RH WIND       PRES   REMARKS
FALMOUTH       SUNNY     48  32  53 W16       29.67F                  
HYANNIS        FAIR      50  32  50 SW15      29.65F                  
CHATHAM        FAIR      46  38  73 SW10G16   29.67F                  
PROVINCETOWN   FAIR      47  36  65 W12       29.66F                  
NANTUCKET      FAIR      46  36  68 W16       29.69F                  
MARTHAS VNYRD  FAIR      47  35  63 SW13G21   29.69F                  
$$
 
MAZALL-261900-
CENTRAL AND WESTERN MASSACHUSETTS
  
CITY           SKY/WX    TMP DP  RH WIND       PRES   REMARKS
WORCESTER      CLOUDY    41  30  65 W15       29.64F                  
6HR MIN TEMP:  34; 6HR MAX TEMP:  42;                                

FITCHBURG      PTSUNNY   45  30  55 VRB6      29.65F                  
ORANGE         CLOUDY    43  30  60 W13G20    29.66F                  
SPRINGFIELD    DRIZZLE   43  34  70 W26       29.67F                  
WESTFIELD      LGT RAIN  40  34  79 NW7       29.69F                  
NORTH ADAMS    NOT AVBL                                               
PITTSFIELD     CLOUDY    35  29  78 W7        29.66F WCI  29          
$$
 
RIZALL-261900-
RHODE ISLAND
  
CITY           SKY/WX    TMP DP  RH WIND       PRES   REMARKS
PROVIDENCE     FAIR      49  31  49 W12G22    29.68F                  
6HR MIN TEMP:  40; 6HR MAX TEMP:  50;                                

NEWPORT        CLOUDY    46  36  68 SW14G20   29.68F                  
BLOCK ISLAND   FAIR      43  35  73 W14G22    29.72F                  
SMITHFIELD     CLOUDY    45  29  53 W18       29.66F                  
WESTERLY       FAIR      46  35  65 SW16G23   29.71F                  
$$
 
CTZALL-261900-
CONNECTICUT
  
CITY           SKY/WX    TMP DP  RH WIND       PRES   REMARKS
BRADLEY INTL   PTSUNNY   46  31  55 W14       29.69F                  
6HR MIN TEMP:  34; 6HR MAX TEMP:  48;                                

HARTFORD       FAIR      46  32  58 W10       29.71F                  
BRIDGEPORT     PTSUNNY   47  31  53 W12G18    29.74F                  
DANBURY        PTSUNNY   43  28  55 W8        29.73F                  
GROTON         FAIR      44  37  76 SW14      29.71F                  
NEW HAVEN      FAIR      46  30  53 NW10G20   29.72F                  
CHESTER        FAIR      43  30  61 W9G20     29.70F                  
MERIDEN        PTSUNNY   44  29  55 W9G16     29.72F                  
WILLIMANTIC    FAIR      46  33  60 SW10      29.70F                  
OXFORD         PTSUNNY   41  29  62 W16       29.71F                  
$$

MEZ002-015-021-024-NHZ003-005-008-011-012-014-VTZ005-008-261900-
NORTHERN NEW ENGLAND
  
CITY           SKY/WX    TMP DP  RH WIND       PRES   REMARKS
PORTLAND ME    CLOUDY    45  35  68 SW10      29.57F                  
6HR MIN TEMP:  37; 6HR MAX TEMP:  46;                                

BANGOR ME      LGT RAIN  41  41 100 W9        29.49F FOG              
CONCORD NH     PTSUNNY   45  29  53 W13       29.61F                  
MANCHESTER NH  PTSUNNY   46  28  49 W12G21    29.61F                  
NASHUA NH      CLOUDY    45  29  53 W13G26    29.64F                  
PORTSMOUTH NH  MOSUNNY   46  32  59 W10       29.59F                  
JAFFREY NH     CLOUDY    41  28  60 W7        29.62F                  
KEENE NH       CLOUDY    41  29  62 W8G18     29.65F                  
BURLINGTON VT  LGT RAIN  37  34  89 SW5       29.62F                  
MT. WASHINGTON SNOWSHWR  21  21 100 W21         N/A  VSB 1/16WCI   6  
$$

NYZ052-076-261900-
EASTERN NEW YORK
  
CITY           SKY/WX    TMP DP  RH WIND       PRES   REMARKS
ALBANY         FAIR      43  32  65 SW8       29.71F                  
6HR MIN TEMP:  34; 6HR MAX TEMP:  43; 6HR PCP:  0.08;                

NEW YORK CITY  PTSUNNY   44  25  47 W14       29.76F                  
6HR MIN TEMP:  39; 6HR MAX TEMP:  45;                                

$$
 
ANZALL-261900-
MARINE OBSERVATIONS
  
STATION/POSITION TIME  TEMP    WIND        PRES    VSBY  WAVE
                       AIR SEA DIR/SP/G                  HT/PER
                 (UTC) (F)     (DEG/KT/KT) (MB)    (MI)  (FT/S)
BOSTON BUOY      1750   44 43  250/ 12/ 16 1002.9F         5/ 9
BUZZARDS BAY     1700   41     250/ 19/ 21 1006.2F
NANTUCKET SOUND  1740                        N/A           2/ 3
MASS BAY-STELLWA 1704   42 41  280/ 12/ 14 1001.5F  1 7/8  7/11
ISLE OF SHOALS   1800   44     260/ 15/ 16 1001.9F
S OF BLOCK IS    1800      44                N/A           6/11
$$

......................KEY.........................
  SKY/WX - SKY CONDITION/PRESENT WEATHER
  TMP    - TEMPERATURE IN FAHRENHEIT
  DWPT   - DEWPOINT IN FAHRENHEIT
  RH     - RELATIVE HUMIDITY IN PERCENT
  WIND   - DIRECTION AND SPEED IN MPH
  PRES   - MEAN SEA LEVEL PRESSURE IN INCHES OF HG
  WCI    - WIND CHILL INDEX
  VSB    - VISIBILITY IN MILES
  HX     - HEAT INDEX
  TC     - TEMPERATURE IN CELSIUS
  VRB    - VARIABLE WIND DIRECTION
  N/A    - NOT AVAILABLE
  
      

Other recent Regional Weather Roundups

Tue Jan 28, 5:00am

Tue Jan 28, 4:10am

Tue Jan 28, 4:00am

Tue Jan 28, 3:10am

Tue Jan 28, 3:01am

Tue Jan 28, 2:10am

Tue Jan 28, 2:00am

Tue Jan 28, 1:10am

Tue Jan 28, 1:00am

Tue Jan 28, 12:10am

Tue Jan 28, 12:01am

Mon Jan 27, 11:10pm

Mon Jan 27, 11:00pm

Mon Jan 27, 10:10pm

Mon Jan 27, 10:00pm

Mon Jan 27, 9:10pm

Mon Jan 27, 9:00pm

Mon Jan 27, 8:10pm

Mon Jan 27, 8:01pm

Mon Jan 27, 7:10pm

Mon Jan 27, 7:00pm

Mon Jan 27, 6:10pm

Mon Jan 27, 6:00pm

Mon Jan 27, 5:10pm

Mon Jan 27, 5:00pm

Mon Jan 27, 4:10pm

Mon Jan 27, 4:00pm

Mon Jan 27, 3:10pm

Mon Jan 27, 3:00pm

Mon Jan 27, 2:10pm

Mon Jan 27, 2:00pm

Mon Jan 27, 1:10pm

Mon Jan 27, 1:00pm

Mon Jan 27, 12:10pm

Mon Jan 27, 12:00pm

Mon Jan 27, 11:10am

Mon Jan 27, 11:01am

Mon Jan 27, 10:10am

Mon Jan 27, 10:00am

Mon Jan 27, 9:10am

Mon Jan 27, 9:00am

Mon Jan 27, 8:10am

Mon Jan 27, 8:00am

Mon Jan 27, 7:10am

Mon Jan 27, 7:00am

Mon Jan 27, 6:10am

Mon Jan 27, 6:00am

Mon Jan 27, 5:10am

Mon Jan 27, 5:00am

Mon Jan 27, 4:10am

Mon Jan 27, 4:01am

Mon Jan 27, 3:10am

Mon Jan 27, 3:00am

Mon Jan 27, 2:10am

Mon Jan 27, 2:00am

Mon Jan 27, 1:10am

Mon Jan 27, 1:00am

Mon Jan 27, 12:10am

Mon Jan 27, 12:00am

Sun Jan 26, 11:10pm

Sun Jan 26, 11:00pm

Sun Jan 26, 10:10pm

Sun Jan 26, 10:00pm

Sun Jan 26, 9:10pm

Sun Jan 26, 9:01pm

Sun Jan 26, 8:10pm

Sun Jan 26, 8:00pm

Sun Jan 26, 7:10pm

Sun Jan 26, 7:00pm

Sun Jan 26, 6:10pm

Sun Jan 26, 6:01pm

Sun Jan 26, 5:10pm

Sun Jan 26, 5:01pm

Sun Jan 26, 4:10pm

Sun Jan 26, 4:00pm

Sun Jan 26, 3:10pm

Sun Jan 26, 3:01pm

Sun Jan 26, 2:10pm

Sun Jan 26, 2:01pm

Sun Jan 26, 1:00pm

Sun Jan 26, 12:10pm

Sun Jan 26, 12:00pm

Sun Jan 26, 11:10am

Sun Jan 26, 11:01am

Sun Jan 26, 10:10am

Sun Jan 26, 10:01am

Sun Jan 26, 9:10am

Sun Jan 26, 9:00am

Sun Jan 26, 8:10am

Sun Jan 26, 8:00am

Sun Jan 26, 7:10am

Sun Jan 26, 7:00am

Sun Jan 26, 6:10am

Sun Jan 26, 6:00am

Sun Jan 26, 5:10am

Sun Jan 26, 5:00am

Sun Jan 26, 4:10am

Sun Jan 26, 4:01am

Sun Jan 26, 3:10am

Sun Jan 26, 3:01am

Sun Jan 26, 2:10am

Sun Jan 26, 2:00am

Sun Jan 26, 1:10am

Sun Jan 26, 1:00am

Sun Jan 26, 12:10am

Sun Jan 26, 12:00am

Sat Jan 25, 11:10pm

Sat Jan 25, 11:00pm

Sat Jan 25, 10:10pm

Sat Jan 25, 10:01pm

Sat Jan 25, 9:10pm

Sat Jan 25, 9:01pm

Sat Jan 25, 8:10pm

Sat Jan 25, 8:01pm

Sat Jan 25, 7:10pm

Sat Jan 25, 7:01pm

Sat Jan 25, 6:10pm

Sat Jan 25, 6:01pm

Sat Jan 25, 5:10pm

Sat Jan 25, 5:01pm

Sat Jan 25, 4:10pm

Sat Jan 25, 4:00pm

Sat Jan 25, 3:10pm

Sat Jan 25, 3:01pm

Sat Jan 25, 2:10pm

Sat Jan 25, 2:00pm

Sat Jan 25, 1:10pm

Sat Jan 25, 1:00pm

Sat Jan 25, 12:10pm

Sat Jan 25, 12:00pm

Sat Jan 25, 11:10am

Sat Jan 25, 11:00am

Sat Jan 25, 10:10am

Sat Jan 25, 10:00am

Sat Jan 25, 9:10am

Sat Jan 25, 9:00am

Sat Jan 25, 8:10am

Sat Jan 25, 8:01am

Sat Jan 25, 7:10am

Sat Jan 25, 7:00am

Sat Jan 25, 6:10am

Sat Jan 25, 6:00am

Sat Jan 25, 5:10am

Meta data:

ID: 93bf71f1-0724-47d2-9f81-2cc0f0049a57
Link: https://api.weather.gov/products/93bf71f1-0724-47d2-9f81-2cc0f0049a57